Theta_e
311 311 310 310 311 311 312 315 317 318 318 319 321 322 323 324 324 325 326 326 327 327 327 325 325 325 326 326 328 331 332 335 337 333 336 339 341 343 343 343 343 343 342 342
310 310 310 310 309 310 311 313 316 317 317 319 320 321 322 322 323 324 325 326 326 326 326 326 325 325 326 327 329 332 333 334 337 333 338 338 341 342 344 344 344 343 343 343
310 309 309 309 309 309 310 311 313 315 316 318 319 321 322 322 323 323 323 324 324 324 325 325 325 324 324 326 328 331 332 335 336 335 339 344 345 344 342 342 344 344 343 341
310 310 309 309 310 310 310 309 310 313 316 318 319 321 321 321 322 322 322 323 323 324 324 324 324 325 324 325 325 327 330 332 334 338 339 344 344 343 342 344 344 342 341 342
309 309 310 311 310 310 310 309 309 312 314 317 317 319 319 320 321 321 322 322 322 322 323 323 323 323 322 322 323 325 327 330 335 339 341 345 344 344 345 345 342 341 342 343
311 311 312 312 312 311 310 309 310 310 313 316 317 318 319 319 320 320 320 321 321 320 321 321 322 321 321 322 323 324 327 335 340 343 344 346 345 345 346 347 345 345 345 344
311 312 313 313 314 311 309 309 311 312 313 314 315 316 317 319 318 318 319 319 320 321 322 322 323 324 324 325 327 334 339 343 344 344 344 346 348 347 348 347 347 346 344 343
315 314 312 313 316 312 310 309 311 312 313 313 312 314 316 316 317 318 318 320 320 322 326 327 328 327 325 325 332 339 342 345 345 345 346 347 348 348 348 347 346 344 342 339
313 312 311 313 314 314 313 312 311 311 312 315 312 313 314 315 317 318 319 319 324 327 330 334 334 333 332 334 339 342 345 346 346 347 347 348 347 347 346 345 342 339 337 340
311 314 311 312 312 312 311 311 311 311 317 315 313 314 315 316 316 316 320 321 321 326 334 336 336 339 338 340 343 345 346 347 346 346 346 345 345 344 344 341 338 338 339 338
310 311 312 311 312 311 312 311 315 314 315 313 313 314 316 318 320 321 320 320 322 330 339 339 340 339 341 345 346 347 347 346 346 345 344 344 343 340 339 339 339 339 339 338
311 313 312 311 310 310 312 312 315 320 315 314 315 317 319 320 319 319 319 319 321 328 339 338 339 342 346 346 346 346 346 345 344 343 342 340 339 339 339 338 338 338 335 333
313 313 313 310 314 313 311 310 311 313 315 320 316 315 319 318 317 317 318 319 320 321 334 339 339 343 346 346 346 345 344 343 341 339 338 338 338 338 338 337 335 334 332 332
311 313 313 314 311 310 310 311 311 312 315 313 313 315 316 317 316 317 318 319 318 319 328 339 339 342 344 344 344 343 341 339 338 337 337 337 336 335 335 334 333 332 332 332
311 315 312 311 311 310 310 310 310 312 312 313 313 314 314 315 316 317 318 317 317 318 325 340 339 340 341 342 341 339 338 336 335 334 333 334 335 335 334 334 333 332 332 332
312 317 313 313 312 311 311 311 311 310 310 311 312 313 313 313 313 314 314 316 317 319 322 339 338 339 342 340 339 338 336 334 332 331 333 334 334 334 334 332 332 332 332 332
314 313 313 313 310 311 311 310 311 310 310 311 312 313 314 314 313 314 315 315 318 320 323 339 339 341 341 339 338 336 335 331 330 332 334 334 334 333 332 331 331 331 332 333
313 313 313 315 313 316 310 312 314 315 314 315 315 315 316 315 314 314 314 316 320 322 325 339 341 342 339 338 337 335 331 329 331 332 333 334 333 332 330 330 330 332 333 332
309 313 314 314 314 311 311 311 313 317 317 315 316 317 317 316 314 315 315 317 322 324 331 338 341 340 338 337 336 334 329 330 331 332 333 334 332 332 330 330 331 331 331 332
312 310 315 315 317 316 316 316 312 312 319 319 320 321 319 316 316 316 319 330 332 334 337 341 340 339 338 336 335 330 331 331 332 332 332 333 332 332 331 331 331 331 332 332
317 314 314 314 317 314 313 312 310 318 319 313 315 316 319 321 319 320 322 327 329 335 338 339 339 339 337 336 333 329 331 332 332 333 333 331 331 332 331 331 331 331 331 331
317 318 320 320 318 320 312 309 316 315 311 310 313 314 319 323 322 322 323 327 329 335 339 340 339 338 336 334 330 328 332 332 333 333 331 332 332 331 332 332 331 331 332 332
319 315 316 314 318 314 312 309 307 308 308 310 314 317 319 321 323 323 325 327 330 337 339 338 338 337 335 331 328 331 332 333 333 332 332 332 332 332 332 333 332 332 333 332
314 313 313 312 314 314 313 311 310 311 311 313 317 319 320 323 324 325 328 331 335 336 339 339 338 338 335 329 329 332 333 333 333 332 333 333 333 333 333 332 333 333 333 332
314 314 312 313 313 313 311 311 311 312 314 317 320 322 324 325 327 328 330 333 335 337 338 337 338 335 332 329 329 332 333 332 333 333 334 334 333 334 333 334 332 333 333 332
313 314 315 316 313 313 312 313 312 313 314 316 318 320 322 324 327 331 333 335 336 337 338 339 335 331 329 328 329 331 331 332 333 334 334 333 332 333 333 333 331 329 330 329
Wind_Speed
11 12 14 15 18 24 25 28 24 20 20 25 25 31 33 28 30 31 26 22 23 22 21 24 24 23 22 23 24 24 23 20 16 15 17 17 19 18 17 17 17 18 19 21
12 16 17 17 16 20 21 24 29 24 13 18 24 31 31 27 29 28 27 26 24 23 22 21 26 24 25 25 23 25 23 19 18 15 16 15 14 16 15 14 15 18 19 20
16 17 16 10 13 18 22 25 24 27 22 19 21 28 28 26 24 22 23 24 24 25 24 23 22 27 28 27 24 22 19 16 17 17 15 14 12 10 13 15 15 18 19 20
15 10 10 15 20 18 21 21 25 24 22 24 20 22 23 24 28 29 29 26 26 25 25 24 23 24 27 28 26 24 21 17 16 17 18 19 17 13 12 16 16 18 19 18
19 20 18 16 18 20 22 19 21 21 22 24 29 19 22 18 22 22 20 22 23 22 24 24 21 22 24 24 26 25 21 18 18 18 18 19 15 12 15 17 21 19 20 18
19 16 18 19 19 23 20 22 20 22 19 20 25 21 20 21 25 23 19 20 20 21 20 15 15 19 22 19 17 17 17 16 15 17 18 18 16 14 17 19 21 20 20 19
18 5 10 16 23 21 18 17 12 15 18 22 23 20 19 6 8 4 6 7 11 11 13 13 12 13 15 15 14 12 12 13 14 17 17 16 16 16 19 23 21 21 20 19
8 8 10 4 10 17 19 19 13 19 16 20 27 27 21 22 25 20 17 9 8 9 10 11 13 10 11 12 12 11 13 14 17 18 18 17 18 19 20 18 21 19 18 18
12 9 8 8 13 15 20 18 20 23 21 16 17 26 26 21 13 8 8 4 6 11 12 13 12 7 8 9 11 13 15 17 19 20 20 20 19 20 19 20 18 18 16 16
9 11 5 2 7 14 15 16 13 13 8 18 15 20 15 24 23 17 4 5 10 13 13 10 4 3 5 8 12 15 18 21 21 21 22 21 21 20 20 20 18 16 15 15
15 7 11 12 7 6 10 13 13 7 13 13 11 14 20 9 12 9 6 10 14 14 12 8 5 1 7 13 18 20 21 23 23 23 22 22 21 21 20 19 17 16 14 13
12 6 12 15 9 8 5 10 5 7 12 16 13 4 12 18 13 6 9 13 15 15 13 6 2 3 11 17 20 21 22 24 23 23 23 22 21 20 19 18 16 14 13 12
8 4 9 7 5 5 7 13 13 14 14 13 14 7 14 10 3 9 13 15 16 17 13 6 2 5 11 16 19 21 22 24 24 24 24 22 20 18 17 16 15 14 14 13
6 11 13 13 18 13 11 11 12 14 11 16 17 24 10 13 13 15 15 16 17 17 11 5 1 4 11 16 19 21 22 23 24 23 22 20 18 16 16 16 16 15 14 13
5 10 17 18 20 18 19 19 18 19 19 20 19 22 19 19 18 18 18 20 18 16 14 5 3 4 9 14 19 21 22 22 22 21 20 18 17 16 16 15 16 15 14 11
5 7 13 17 16 17 20 21 21 22 22 21 23 27 24 25 23 20 21 19 16 14 13 4 7 6 11 14 19 22 22 21 20 20 19 18 17 16 15 15 16 15 13 10
4 7 8 14 14 12 15 17 19 18 20 18 21 24 21 23 22 18 20 17 16 15 13 3 10 11 11 18 21 21 21 21 20 20 18 16 15 14 14 16 16 14 11 10
5 11 8 7 9 10 12 3 11 10 12 17 19 22 24 22 19 16 17 16 16 16 14 6 12 13 17 20 22 22 21 21 20 19 17 15 13 14 16 18 16 12 11 11
10 5 4 4 9 15 18 5 6 8 17 19 23 20 21 17 16 16 14 16 18 15 11 7 16 20 20 22 23 22 20 20 19 18 16 13 13 16 16 15 14 12 12 10
1 8 4 4 5 5 2 4 5 7 15 13 10 14 15 10 11 10 5 7 14 9 8 10 19 22 24 24 24 22 21 20 17 17 15 13 14 16 15 14 15 13 11 10
4 2 10 14 7 7 1 8 7 5 5 17 15 14 16 12 8 10 13 14 14 12 6 16 20 21 24 26 25 22 21 18 17 15 15 14 15 15 15 14 12 12 13 11
3 4 2 3 5 3 8 9 5 9 19 16 16 15 15 17 14 13 15 15 14 12 10 19 17 21 25 26 24 22 20 19 16 15 16 16 16 15 15 14 12 12 12 12
2 3 3 3 4 13 12 8 15 16 17 21 17 17 15 16 15 14 12 14 14 8 11 18 19 22 24 24 23 22 22 19 17 18 17 17 15 14 13 13 12 11 11 11
6 8 2 4 4 14 14 9 11 13 16 20 21 18 16 15 12 14 12 11 7 6 11 18 20 18 21 23 23 24 23 20 18 19 17 16 14 13 11 10 10 10 10 9
6 6 4 7 13 14 1 12 12 15 15 9 7 5 7 8 12 9 11 7 6 6 13 18 18 19 22 24 23 24 22 20 20 20 17 15 13 10 10 8 5 6 7 6
4 8 3 3 12 9 7 14 13 15 16 10 8 5 4 6 7 11 6 3 3 7 15 16 21 22 24 24 23 24 23 21 21 19 17 15 14 12 10 10 9 8 10 8
Wind_Direction
267 264 255 262 258 257 266 269 268 261 270 253 243 244 251 245 251 257 258 255 258 265 272 276 275 272 263 261 257 255 256 253 239 231 230 227 224 219 215 209 205 200 197 199
269 250 267 279 279 273 264 260 258 259 275 269 242 251 251 248 250 253 255 255 263 267 267 269 268 266 264 262 257 254 250 245 236 231 229 233 224 213 204 200 195 194 195 194
278 287 297 269 259 254 254 254 258 254 253 237 252 254 253 252 254 256 259 259 261 265 268 268 268 266 265 260 254 251 247 233 230 228 220 209 187 168 177 187 186 188 186 183
287 297 289 268 262 257 267 259 254 258 251 245 230 258 249 242 245 245 250 252 257 261 262 264 265 264 262 263 259 255 248 240 234 218 212 201 191 180 188 177 175 169 174 174
271 287 291 271 269 263 262 262 255 246 251 250 242 253 260 255 255 257 257 256 255 262 258 259 263 266 266 261 256 248 244 239 229 212 205 194 199 179 166 162 151 158 164 167
269 275 258 273 281 265 259 257 246 248 249 239 237 238 252 252 256 255 254 255 249 252 260 262 271 271 251 249 244 237 229 222 205 192 189 186 183 168 156 146 148 152 158 159
312 339 348 321 256 245 234 243 240 228 226 241 237 234 238 266 111 332 230 286 267 254 263 268 270 265 234 230 224 220 207 192 179 175 174 177 170 164 154 155 153 153 157 162
344 319 0 324 287 250 222 234 235 242 235 232 227 236 227 235 263 272 251 257 279 279 294 285 285 261 251 223 207 201 183 168 164 158 156 155 153 152 150 148 146 153 159 159
314 306 281 343 298 277 227 248 261 268 285 280 232 211 248 255 232 235 212 277 332 325 322 303 283 257 235 192 179 182 164 154 153 145 141 142 142 142 135 137 143 148 146 148
312 300 324 294 303 256 254 227 248 240 265 259 239 198 218 210 217 252 115 1 347 345 341 320 294 250 206 175 170 156 152 147 141 137 136 136 133 131 134 137 141 143 141 147
308 274 288 287 233 254 272 239 209 213 287 281 243 210 207 200 105 105 58 11 5 357 1 344 358 154 162 164 142 142 139 137 135 133 131 130 129 132 136 138 139 139 141 148
327 290 286 290 278 225 175 245 342 267 232 249 273 321 107 119 133 82 16 8 360 2 20 359 23 149 165 138 137 136 137 134 131 131 128 128 132 135 137 138 138 142 142 147
353 270 301 288 210 201 217 244 243 244 273 260 270 244 158 183 178 10 1 353 343 348 33 23 24 175 144 139 136 137 136 132 133 131 131 132 136 137 139 139 139 142 144 146
318 268 258 274 293 320 295 274 255 270 263 263 259 263 221 225 303 319 338 329 333 336 18 55 319 229 149 142 140 139 135 136 135 135 134 135 138 140 139 138 142 145 147 148
252 260 272 271 276 275 275 270 265 257 259 260 263 267 267 274 299 313 315 303 311 321 350 104 184 250 159 145 140 137 136 136 135 135 135 135 137 138 138 142 148 148 150 148
229 261 274 275 265 266 268 267 261 257 255 254 259 264 267 273 275 280 287 298 305 317 330 116 178 212 164 153 146 141 139 139 139 137 135 137 139 143 144 147 149 152 149 150
244 264 277 268 274 295 278 267 265 260 254 254 254 260 270 269 268 272 278 291 297 303 317 168 177 189 169 160 146 148 144 144 143 139 139 140 142 143 150 157 154 156 152 153
235 232 250 273 299 259 254 342 316 304 297 288 270 261 262 265 274 270 269 280 292 293 296 181 179 179 172 158 154 148 149 149 146 146 145 147 151 149 148 154 159 149 155 150
224 234 259 240 230 277 295 296 306 309 289 292 275 262 272 260 264 262 261 275 279 273 273 188 177 167 167 161 155 154 154 153 155 150 152 155 151 157 160 162 153 156 152 149
192 214 250 243 249 262 41 163 1 322 276 27 328 313 299 251 241 256 252 351 314 301 275 159 177 165 162 161 159 158 154 160 159 153 155 151 155 158 163 157 161 161 166 159
300 212 223 247 257 262 6 8 323 226 343 323 330 320 314 282 268 299 317 302 304 297 258 156 171 163 163 160 161 162 160 163 153 149 145 149 151 156 158 159 161 166 173 151
288 302 297 261 239 262 6 317 248 333 313 299 304 297 284 296 280 278 279 289 287 280 185 171 165 161 161 162 163 162 165 159 150 149 146 145 148 155 160 163 163 169 167 165
291 258 289 246 299 288 295 249 273 270 271 281 284 278 270 267 273 279 279 283 270 254 178 170 162 156 161 164 165 162 162 156 156 146 143 148 148 143 151 162 175 174 174 177
296 311 263 307 280 294 311 294 294 284 267 274 265 258 266 269 272 271 267 255 245 215 180 168 160 158 162 165 165 161 158 160 158 148 151 150 146 145 150 155 174 182 185 184
269 346 276 259 274 308 259 313 330 313 313 343 308 291 272 266 265 251 261 233 246 210 181 165 159 163 161 164 163 161 160 162 153 155 153 156 143 152 146 138 140 161 160 174
315 328 268 284 301 314 315 336 336 330 336 5 2 359 313 283 272 245 178 139 185 171 162 166 160 158 157 162 162 161 166 164 156 156 162 158 147 148 150 149 130 88 125 145